User: anonymous   Login
Location: Camaret
(48.2753°N, 4.5961°W)
Time: 16:37:26
(UTC+00:00)
Language:

Helios 1A Rocket - Orbit

View from above orbital plane
View from above orbital plane
View from above satellite
View from above satellite

Ground track
Ground track

The orbit data is extracted from the following two-line orbital elements,

1 23608U 95033D   21017.16094286  .00001059  00000-0  96357-4 0  9995
2 23608  98.3105  48.2132 0014944 251.7788 108.1806 14.97533056383738
Epoch (UTC): 17 January 2021 03:51:45
Eccentricity: 0.0014944
inclination: 98.3105°
perigee height: 564 km
apogee height: 585 km
right ascension of ascending node: 48.2132°
argument of perigee: 251.7788°
revolutions per day: 14.97533056
mean anomaly at epoch: 108.1806°
orbit number at epoch: 38373

The dashed part of the orbit path shows where the satellite is in the earth's shadow,  

DLR